Hoolehua, HI

5:05 AM HST on February 21, 2017 (GMT -1000)
Molokai

Weather History for PHMK - March, 2014

Change the Weather History Date:

Wednesday, March 12, 2014

  Actual Average Record
Temperature  
Mean Temperature 72 °F -  
Max Temperature 75 °F 79 °F 86 °F (1984)
Min Temperature 69 °F 64 °F 56 °F (1983)
Cooling Degree Days 7    
Growing Degree Days 22 (Base 50)    
Moisture  
Dew Point 67 °F    
Average Humidity 86    
Maximum Humidity 96    
Minimum Humidity 78    
Precipitation  
Precipitation 0.10 in - - ()
Sea Level Pressure  
Sea Level Pressure 30.05 in    
Wind  
Wind Speed 11 mph (NNE)    
Max Wind Speed 16 mph    
Max Gust Speed 25 mph    
Visibility 10 miles    
Events Rain    
Averages and records for this station are not official NWS values.
T = Trace of Precipitation, MM = Missing Value Source: NWS Daily Summary

Daily Weather History Graph

Daily Weather History Graph

Search for Another Location

Airport or City:

Trip Planner

Search our weather history database for the weather conditions in past years. The results will help you decide how hot, cold, wet, or windy it might be!

Date:

Astronomy

Mar. 12, 2014 Rise Set
Actual Time 6:39 AM HST 6:36 PM HST
Civil Twilight 6:17 AM HST 6:59 PM HST
Nautical Twilight 5:51 AM HST 7:24 PM HST
Astronomical Twilight 5:25 AM HST 7:50 PM HST
Moon 3:37 PM HST (3/12) 3:56 AM HST (3/12)
Length of Visible Light 12h 41m
Length of Day
11h 57m
Waxing Gibbous, 87% of the Moon is Illuminated
Mar 12
Waxing Gibbous
Mar 16
Full
Mar 23
Last Quarter
Mar 30
New
Apr 6
First Quarter

Hourly Weather History & Observations

Time (HST) Temp. Dew Point Humidity Pressure Visibility Wind Dir Wind Speed Gust Speed Precip Events Conditions
12:54 AM 70.0 °F 66.0 °F 87% 30.07 in 10.0 mi NNE 11.5 mph 21.9 mph N/A   Partly Cloudy
1:54 AM 70.0 °F 66.0 °F 87% 30.05 in 10.0 mi NNE 12.7 mph 19.6 mph N/A   Scattered Clouds
2:54 AM 70.0 °F 64.9 °F 84% 30.03 in 10.0 mi NNE 10.4 mph 20.7 mph N/A   Clear
3:54 AM 70.0 °F 66.0 °F 87% 30.02 in 10.0 mi NNE 8.1 mph - N/A   Mostly Cloudy
4:05 AM 69.8 °F 66.2 °F 88% 30.01 in 10.0 mi NNE 8.1 mph 18.4 mph N/A   Mostly Cloudy
4:12 AM 69.8 °F 66.2 °F 88% 30.01 in 10.0 mi NNE 9.2 mph - N/A   Mostly Cloudy
4:45 AM 69.8 °F 64.4 °F 83% 30.02 in 10.0 mi NE 10.4 mph 16.1 mph N/A   Scattered Clouds
4:54 AM 70.0 °F 64.9 °F 84% 30.03 in 10.0 mi NE 8.1 mph 18.4 mph N/A   Scattered Clouds
5:54 AM 70.0 °F 66.0 °F 87% 30.04 in 10.0 mi NNE 8.1 mph - N/A   Scattered Clouds
6:54 AM 70.0 °F 66.0 °F 87% 30.06 in 10.0 mi NNE 8.1 mph - N/A   Scattered Clouds
7:02 AM 69.8 °F 66.2 °F 88% 30.05 in 10.0 mi NNE 6.9 mph - N/A   Mostly Cloudy
7:10 AM 69.8 °F 66.2 °F 88% 30.05 in 10.0 mi NNE 9.2 mph - N/A   Scattered Clouds
7:18 AM 71.6 °F 66.2 °F 83% 30.05 in 10.0 mi NNE 9.2 mph - N/A   Mostly Cloudy
7:54 AM 72.0 °F 66.9 °F 84% 30.07 in 10.0 mi NNE 10.4 mph 17.3 mph N/A   Scattered Clouds
8:54 AM 73.0 °F 66.9 °F 81% 30.09 in 10.0 mi NNE 8.1 mph 16.1 mph N/A   Mostly Cloudy
9:30 AM 73.4 °F 66.2 °F 78% 30.09 in 10.0 mi NNE 10.4 mph 17.3 mph N/A   Mostly Cloudy
9:54 AM 73.0 °F 69.1 °F 87% 30.10 in 8.0 mi North 11.5 mph 18.4 mph 0.00 in Rain Light Rain
10:54 AM 73.9 °F 70.0 °F 87% 30.10 in 10.0 mi NNE 9.2 mph 16.1 mph 0.02 in   Mostly Cloudy
11:54 AM 75.0 °F 70.0 °F 84% 30.08 in 10.0 mi NNE 12.7 mph 21.9 mph 0.00 in   Scattered Clouds
12:42 PM 75.2 °F 69.8 °F 83% 30.05 in 10.0 mi NNE 15.0 mph 24.2 mph N/A   Mostly Cloudy
12:54 PM 75.0 °F 70.0 °F 84% 30.06 in 10.0 mi NNE 12.7 mph 24.2 mph N/A   Mostly Cloudy
1:03 PM 75.2 °F 69.8 °F 83% 30.04 in 8.0 mi North 13.8 mph 20.7 mph N/A   Mostly Cloudy
1:54 PM 75.9 °F 70.0 °F 82% 30.04 in 10.0 mi North 15.0 mph 25.3 mph 0.00 in   Scattered Clouds
2:54 PM 71.1 °F 70.0 °F 96% 30.02 in 10.0 mi NE 11.5 mph 21.9 mph 0.04 in Rain Light Rain
3:54 PM 72.0 °F 69.1 °F 91% 30.01 in 5.0 mi NNE 13.8 mph 25.3 mph 0.01 in Rain Light Rain
4:21 PM 73.4 °F 69.8 °F 88% 30.00 in 10.0 mi NNE 16.1 mph 24.2 mph 0.00 in   Mostly Cloudy
4:54 PM 75.0 °F 69.1 °F 82% 30.01 in 10.0 mi NNE 15.0 mph 21.9 mph 0.00 in   Mostly Cloudy
5:49 PM 73.4 °F 68.0 °F 83% 30.02 in 10.0 mi NE 6.9 mph - N/A   Mostly Cloudy
5:54 PM 72.0 °F 68.0 °F 87% 30.04 in 10.0 mi NE 9.2 mph - N/A   Scattered Clouds
6:54 PM 71.1 °F 66.9 °F 87% 30.06 in 10.0 mi NE 9.2 mph 16.1 mph 0.01 in Rain Light Rain
7:54 PM 71.1 °F 66.9 °F 87% 30.07 in 10.0 mi NNE 9.2 mph 18.4 mph 0.00 in   Scattered Clouds
8:54 PM 71.1 °F 66.9 °F 87% 30.09 in 10.0 mi NNE 11.5 mph 17.3 mph 0.01 in   Partly Cloudy
9:54 PM 70.0 °F 68.0 °F 93% 30.11 in 10.0 mi NNE 8.1 mph - 0.00 in   Partly Cloudy
10:54 PM 71.1 °F 68.0 °F 90% 30.12 in 10.0 mi NE 9.2 mph 17.3 mph N/A   Clear
11:54 PM 71.1 °F 66.9 °F 87% 30.11 in 10.0 mi NE 11.5 mph 16.1 mph 0.01 in   Partly Cloudy